User: anonymous   Login
Location: Foulognes
(49.1413°N, 0.8183°W)
Time: 07:45:38
(UTC+00:00)
Language:

Starlink (trailer) - Orbit

View from above orbital plane
View from above orbital plane
View from above satellite
View from above satellite

Ground track
Ground track

The orbit data is extracted from the following two-line orbital elements,

1 44284U 19029BB  19345.25001157 -.00024774  00000-0 -14083-2 0  9990
2 44284  53.0021 348.3973 0001471  79.2353  90.1057 15.12146932 30463
Epoch (UTC): 11 December 2019 06:00:01
Eccentricity: 0.0001471
inclination: 53.0021°
perigee height: 528 km
apogee height: 530 km
right ascension of ascending node: 348.3973°
argument of perigee: 79.2353°
revolutions per day: 15.12146932
mean anomaly at epoch: 90.1057°
orbit number at epoch: 3046

The dashed part of the orbit path shows where the satellite is in the earth's shadow,  

DLR